Regional Weather Roundup
Issued by NWS

Home | Current Version | Previous Version | Graphics & Text | Print | Product List | Glossary On
Versions: 1 2 3 4 5 6 7 8 9 10 11 12 13 14 15 16 17 18 19 20 21 22 23 24 25 26 27 28 29 30 31 32 33 34 35 36 37 38 39 40 41 42 43 44 45 46 47 48 49 50
949
ASUS45 KSLC 250310
RWRUT

UTAH REGIONAL WEATHER ROUNDUP
NATIONAL WEATHER SERVICE SALT LAKE CITY UT
900 PM MDT SUN JUL 24 2016

UTZ001>011-023>025-250400-

NORTHERN UTAH

CITY           SKY/WX    TMP DP  RH WIND       PRES   REMARKS
BRIGHAM CITY     N/A     87  24  10 CALM      30.02F
HILL AFB       CLEAR     85  28  12 NE5       30.07S
LOGAN          CLEAR     82  40  22 NE3       30.04S
OGDEN          CLEAR     81  28  14 N3        30.03S
PROVO AIRPORT  CLEAR     79  59  50 NW12      30.03S
SALT LAKE CITY PTCLDY    86  38  18 N6        30.01S
VERNAL         CLEAR     84  24  11 NW8       30.08R
WENDOVER       CLEAR     86  28  12 W3        30.02S
HEBER CITY     CLEAR     77  36  22 CALM      30.12R

$$

UTZ012>022-026-027-250400-

SOUTHERN/CENTRAL UTAH

CITY           SKY/WX    TMP DP  RH WIND       PRES   REMARKS
BLANDING       CLOUDY    85  37  17 SW20G25   30.24R
BRYCE CANYON   MOCLDY    68  41  37 S7        30.34R
CEDAR CITY     PTCLDY    80  48  32 E3        30.13R
DELTA          CLEAR     88  30  12 CALM      30.02S
MILFORD        PTCLDY    85  36  17 E7        30.06R
MOAB/CYNLANDS  CLEAR     91  26   9 W7        29.97R
PRICE          CLEAR     85  18   8 NW7       30.13R
ST GEORGE      CLEAR    100  43  14 SW7       29.90R HX  96

$$

REGIONAL REPORTS     COLORADO/ARIZONA

CITY           SKY/WX    TMP DP  RH WIND       PRES   REMARKS
CRAIG, CO      CLEAR     77  40  26 E8        30.18R
GRAND JUNCTION CLEAR     86  39  19 E10       30.03R
RIFLE          CLEAR     80  43  26 E12       30.11R
MONTROSE       CLEAR     82  43  25 SE9       30.15R
CORTEZ         CLOUDY    77  45  32 E5        30.17R
PAGE, AZ       CLOUDY    89  41  18 S6        30.07S
GRAND CANYON   CLOUDY    71  49  45 E3        30.28F
KINGMAN        CLEAR     92  54  27 SW12      29.99R HX  90
FLAGSTAFF      CLOUDY    73  52  47 N3        30.31R

$$

REGIONAL REPORTS    NEVADA/IDAHO/WYOMING

CITY           SKY/WX    TMP DP  RH WIND       PRES   REMARKS
LAS VEGAS, NV  CLEAR    105  32   8 SW7G17    29.76R HX  98
ELY            PTCLDY    77  26  15 S8        30.12S
ELKO           CLEAR     86  17   8 NW7       30.04S
POCATELLO, ID  CLEAR     76  28  17 S7        30.07S
BURLEY         CLEAR     71  47  42 SE3       30.03S
EVANSTON, WY   CLEAR     73  18  12 NW8       30.27S
ROCK SPRINGS   CLEAR     75   9   8 W10       30.23R
KEMMERER         N/A    N/A N/A N/A NW9       30.30R

$$




USA.gov is the U.S. government's official web portal to all federal, state and local government web resources and services.